1283734233316,0.000138169
1283734293316,0.000138995
1283734353316,0.000138980
1283734413316,0.000138527
1283734473316,0.000136988
1283737833326,0.000138991
1283737893326,0.000139350
1283737953326,0.000138184
1283738013326,0.000138019
1283738073326,0.000138583
1283741433336,0.000139644
1283741493336,0.000137993
1283741553336,0.000138527
1283741613336,0.000137975
1283741673336,0.000137809
1283745033345,0.000138850
1283745093345,0.000138128
1283745153345,0.000137631
1283745213345,0.000137897
1283745273345,0.000138432
1283748633355,0.000137809
1283748693355,0.000138410
1283748753355,0.000138088
1283748813355,0.000137447
1283748873355,0.000137884
1283752233365,0.000138507
1283752293365,0.000137921
1283752353365,0.000137863
1283752413365,0.000137515
1283752473365,0.000136502
1283752533365,0.000137822
1283752593365,0.000138414
1283752653365,0.000137986
1283752713365,0.000137485
1283752773365,0.000137713
1283752833374,0.000138536
1283752893374,0.000138540
1283752953374,0.000137986
1283753013374,0.000138128
1283753073374,0.000137886
1283753133374,0.000137522
1283753193374,0.000137545
1283753253374,0.000137708
1283753313374,0.000137941
1283753373374,0.000137251
1283753433374,0.000136792
1283753493374,0.000137576
1283753553374,0.000137298
1283753613374,0.000137342
1283753673374,0.000136535
1283753733374,0.000136815
1283753793374,0.000135811
1283753853374,0.000136095
1283753913374,0.000137194
1283753973374,0.000137069
1283754033374,0.000137715
1283754093374,0.000137393
1283754153374,0.000136280
1283754213374,0.000137117
1283754273374,0.000136040
1283754333374,0.000135915
1283754393374,0.000136918
1283754453374,0.000137177
1283754513374,0.000138122
1283754573374,0.000137015
1283754633374,0.000137401
1283754693374,0.000137592
1283754753374,0.000136793
1283754813374,0.000137673
1283754873374,0.000136786
1283754933374,0.000136338
1283754993374,0.000137004
1283755053374,0.000137933
1283755113374,0.000136990
1283755173374,0.000137361
1283755233374,0.000138181
1283755293374,0.000136610
1283755353374,0.000137132
1283755413374,0.000136700
1283755473374,0.000135794
1283755533374,0.000137686
1283755593374,0.000137267
1283755653374,0.000136525
1283755713374,0.000136526
1283755773374,0.000137047
1283755833374,0.000136647
1283755893374,0.000136711
1283755953374,0.000136254
1283756013374,0.000137713
1283756073374,0.000136399
1283756133374,0.000136497
1283756193374,0.000136534
1283756253374,0.000136415
1283756313374,0.000136537
1283756373374,0.000136336
1283756433384,0.000136694
1283756493384,0.000137542
1283756553384,0.000136708
1283756613384,0.000136232
1283756673384,0.000136585
1283756733384,0.000137287
1283756793384,0.000136184
1283756853384,0.000136677
1283756913384,0.000137443
1283756973384,0.000137047
1283757033384,0.000137986
1283757093384,0.000138145
1283757153384,0.000137701
1283757213384,0.000137387
1283757273384,0.000136628
1283757333384,0.000137135
1283757393384,0.000136610
1283757453384,0.000137271
1283757513384,0.000137241
1283757573384,0.000136267
1283757633384,0.000137317
1283757693384,0.000138125
1283757753384,0.000136663
1283757813384,0.000136570
1283757873384,0.000136818
1283757933384,0.000137304
1283757993384,0.000136354
1283758053384,0.000135739
1283758113384,0.000136905
1283758173384,0.000136727
1283758233384,0.000137326
1283758293384,0.000135806
1283758353384,0.000136131
1283758413384,0.000136593
1283758473384,0.000136907
1283758533384,0.000137490
1283758593384,0.000135433
1283758653384,0.000135926
1283758713384,0.000136560
1283758773384,0.000137152
1283758833384,0.000135590
1283758893384,0.000136822
1283758953384,0.000136847
1283759013384,0.000136377
1283759073384,0.000136519
1283759133384,0.000135734
1283759193384,0.000135997
1283759253384,0.000135941
1283759313384,0.000135446
1283759373384,0.000135983
1283759433384,0.000135948
1283759493384,0.000136178
1283759553384,0.000137562
1283759613384,0.000136854
1283759673384,0.000136636
1283759733384,0.000135694
1283759793384,0.000136700
1283759853384,0.000135977
1283759913384,0.000136828
1283759973384,0.000136913
1283760033394,0.000136602
1283760093394,0.000135781
1283760153394,0.000137050
1283760213394,0.000136347
1283760273394,0.000136419
1283760333394,0.000136603
1283760393394,0.000136626
1283760453394,0.000136327
1283760513394,0.000137464
1283760573394,0.000136527
1283760633394,0.000136071
1283760693394,0.000136608
1283760753394,0.000137003
1283760813394,0.000137094
1283760873394,0.000136663
1283760933394,0.000136579
1283760993394,0.000136759
1283761053394,0.000136703
1283761113394,0.000136811
1283761173394,0.000136359
1283761233394,0.000136552
1283761293394,0.000135417
1283761353394,0.000137038
1283761413394,0.000136547
1283761473394,0.000136686
1283761533394,0.000136801
1283761593394,0.000135657
1283761653394,0.000136103
1283761713394,0.000137614
1283761773394,0.000136091
1283761833394,0.000136871
1283761893394,0.000136193
1283761953394,0.000136685
1283762013394,0.000136634
1283762073394,0.000137343
1283762133394,0.000136371
1283762193394,0.000136509
1283762253394,0.000137305
1283762313394,0.000137747
1283762373394,0.000137141
1283762433394,0.000137919
1283762493394,0.000138410
1283762553394,0.000136471
1283762613394,0.000138443
1283762673394,0.000137342
1283762733394,0.000137029
1283762793394,0.000135833
1283762853394,0.000135996
1283762913394,0.000136390
1283762973394,0.000136735
1283763033394,0.000135221
1283763093394,0.000139113
1283763153394,0.000137802
1283763213394,0.000136817
1283763273394,0.000136721
1283766633404,0.000135562
1283766693404,0.000137399
1283766753404,0.000136456
1283766813404,0.000136805
1283766873404,0.000136596
1283770233414,0.000135510
1283770293414,0.000136153
1283770353414,0.000137229
1283770413414,0.000136350
1283770473414,0.000135992
1283773833424,0.000135218
1283773893424,0.000135616
1283773953424,0.000134603
1283774013424,0.000135281
1283774073424,0.000135410
1283777433434,0.000136119
1283777493434,0.000136271
1283777553434,0.000135444
1283777613434,0.000136665
1283777673434,0.000136052
1283781033445,0.000134746
1283781093445,0.000135573
1283781153445,0.000134320
1283781213445,0.000134201
1283781273445,0.000135257
1283784633456,0.000135945
1283784693456,0.000136307
1283784753456,0.000137078
1283784813456,0.000136360
1283784873456,0.000136313
1283788233466,0.000135318
1283788293466,0.000135067
1283788353466,0.000134834
1283788413466,0.000134710
1283788473466,0.000134781
1283791833478,0.000135847
1283791893478,0.000135579
1283791953478,0.000134987
1283792013478,0.000135815
1283792073478,0.000135627
1283795433489,0.000135526
1283795493489,0.000136698
1283795553489,0.000136837
1283795613489,0.000136060
1283795673489,0.000135643
1283799033500,0.000136403
1283799093500,0.000136031
1283799153500,0.000135545
1283799213500,0.000136197
1283799273500,0.000134650
1283802633512,0.000135758
1283802693512,0.000136388
1283802753512,0.000136144
1283802813512,0.000135124
1283802873512,0.000135639
1283806233523,0.000136211
1283806293523,0.000135280
1283806353523,0.000136355
1283806413523,0.000135660
1283806473523,0.000135705
1283809833534,0.000136893
1283809893534,0.000136286
1283809953534,0.000135675
1283810013534,0.000136138
1283810073534,0.000136490
1283813433545,0.000136214
1283813493545,0.000135569
1283813553545,0.000136114
1283813613545,0.000136240
1283813673545,0.000135248
1283817033556,0.000136187
1283817093556,0.000136656
1283817153556,0.000135490
1283817213556,0.000136370
1283817273556,0.000135498
